Regional Weather Roundup
Issued by NWS New Orleans/Baton Rouge, LA

Home | Current Version | Previous Version | Graphics & Text | Print | Product List | Glossary On
Versions: 1 2 3 4 5 6 7 8 9 10 11 12 13 14 15 16 17 18 19 20 21 22 23 24 25 26 27 28 29 30 31 32 33 34 35 36 37 38 39 40 41 42 43 44 45 46 47 48 49 50
515
ASUS44 KLIX 311511
RWRLIX
NEW ORLEANS REGIONAL WEATHER ROUNDUP
NATIONAL WEATHER SERVICE NEW ORLEANS LA
1000 AM CDT TUE MAR 31 2015

NOTE: "FAIR" INDICATES FEW OR NO CLOUDS BELOW 12,000 FEET WITH NO
      SIGNIFICANT WEATHER AND/OR OBSTRUCTIONS TO VISIBILITY.
      SKY/WX - SKY CONDITION AND SIGNIFICANT WEATHER.
      TMP - AIR TEMPERATURE.     DP    - DEWPOINT TEMPERATURE.
      RH  - RELATIVE HUMIDITY.   PRES  - PRESSURE.
      HI  - HEAT INDEX.          WCI   - WIND CHILL INDEX.

*  THESE STATIONS ARE NOT NWS OR FAA STATIONS AND ARE NOT UNDER
   NWS QUALITY CONTROL.

LAZ038-040-048-061>063-065>067-069-311600-
SOUTHEAST LOUISIANA

CITY           SKY/WX    TMP DP  RH WIND       PRES   REMARKS
N.O. AUDUBON     N/A     74  71  92 MISG        N/A
N.O. INTL ARPT PTSUNNY   72  65  78 S7        30.15R
N.O. LAKEFRONT MOSUNNY   74  64  71 W8        30.15R
SLIDELL        PTSUNNY   73  65  75 SW9       30.14R
BATON ROUGE    SUNNY     73  65  75 SW10      30.13S
BOOTHVILLE     SUNNY     74  66  76 SW7       30.16R
BELLE CHASSE   PTSUNNY   73  66  78 SW9       30.14S
BOGALUSA*        N/A     74  62  66 SW10      30.15S
GALLIANO*      SUNNY     77  67  72 SW9       30.16R
NEW ROADS*       N/A     72  64  75 SW12      30.14R
GONZALES*        N/A     74  68  82 SW6       30.14R
HAMMOND*       MOSUNNY   75  61  60 SW8       30.15S
HOUMA*         MOSUNNY   73  66  78 SW5       30.15R
PORT FOURCHON* SUNNY     75  66  73 S5        30.18S

$$

MSZ070-080>082-311600-
SOUTHERN MISSISSIPPI

CITY           SKY/WX    TMP DP  RH WIND       PRES   REMARKS
MCCOMB         MOSUNNY   69  61  75 W10G16    30.13S
GULFPORT       PTSUNNY   73  63  70 SW9       30.14R
BILOXI         MOSUNNY   73  67  79 SW10      30.14R
PASCAGOULA     PTSUNNY   74  64  71 SW6       30.15R

$$

COASTAL OBSERVATIONS
LAKE AND NEARSHORE STATIONS

STATION/POSITION TIME  TEMP    WIND        PRES    WAVE
                       AIR SEA DIR/SP/G            HT/PER
                 (UTC) (F)     (DEG/KT/KT) (MB)    (FT/S)
PASCAGOULA       1400   69     240/  6/  8 1020.1
WAVELAND YACHT   1400   71 68  240/  7/  9 1020.4
GRAND ISLE       1400   71 70  180/  4/  5 1020.5
SOUTHWEST PASS   1400   66 54  130/  2/  3 1021.1
NEW CANAL        1400   70     210/  5/  7 1021.0
SHELL BEACH      1400   69 70  230/  5/  8 1020.7

OFFSHORE STATIONS

STATION/POSITION TIME  TEMP    WIND        PRES    WAVE
                       AIR SEA DIR/SP/G            HT/PER
                 (UTC) (F)     (DEG/KT/KT) (MB)    (FT/S)
64 S DAUPHIN ISL 1450   71 71  210/  4/  6 1021.5    3/ 8

$$




USA.gov is the U.S. government's official web portal to all federal, state and local government web resources and services.